Other Surface Observations
Issued by NWS

Home | Current Version | Previous Version | Text Only | Print | Product List | Glossary On
Versions: 1 2 3 4 5 6 7 8 9 10 11 12 13 14 15 16 17 18 19 20 21 22 23 24 25 26 27 28 29 30 31 32 33 34 35 36 37 38 39 40 41 42 43 44 45 46 47 48 49 50
000
SXUS52 KTAE 281518
OSOTAE
OSOTAE
North Florida/South Alabama/Southwest Georgia Weather Roundup
National Weather Service Tallahassee Florida
1100 AM EDT THU AUG 28 2014

Note: "fair" indicates few or no clouds below 12,000 feet with no
significant weather and/or obstructions to visibility.

!FLZ017-115-028-034-025-281600
...North Florida...

CITY           SKY/WX    TMP DP  RH WIND       PRES   REMARKS
TALLAHASSEE    MOSUNNY   87  68  52 S6        30.03S HX  90
APALACHICOLA   SUNNY     86  71  60 SE8       30.02R HX  91
PERRY          SUNNY     82  61  47 CALM      30.04S
CROSS CITY       N/A     87  64  46 VRB3      30.03S
HOMERVILLE     FAIR      88  68  51 NW3       30.05S HX  91
JACKSONVILLE   MOSUNNY   82  66  58 CALM      30.04S
$$

!FLZ112-006-005-002-011-281600
...Florida Panhandle...

CITY           SKY/WX    TMP DP  RH WIND       PRES   REMARKS
MARIANNA       SUNNY     85  72  65 CALM      30.03R HX  91
BONIFAY        NOT AVBL
PANAMA CITY NW FAIR      87  72  60 CALM      30.01S HX  93
TYNDALL AFB    DRIZZLE   86  72  62 VRB6      30.03R HX  93
TYND DRONE APT FAIR      86  69  55 E7        30.01R HX  90
DE FUNIAK SPR  FAIR      84  69  60 CALM      30.04R
EGLIN AFB      PTSUNNY   85  69  58 S1        30.02R
DESTIN         MOSUNNY   87  71  58 VRB5      30.02R HX  93
HURLBURT       MOSUNNY   88  66  48 VRB2      30.01R HX  90
CRESTVIEW      MOSUNNY   84  67  56 CALM      30.04R
PENSACOLA      MOSUNNY   82  69  64 VRB3      30.01S
$$

!ALZ063-066-281600
...South Alabama...

CITY           SKY/WX    TMP DP  RH WIND       PRES   REMARKS
DOTHAN         SUNNY     85  65  51 E3        30.08R
OZARK CAIRNS   SUNNY     83  67  57 SE5       30.04R
FT RUCKER HELI SUNNY     85  66  53 VRB5      30.03R
RUCKER HELI 3  FAIR      87  65  48 SE5       30.06R
RUCKER HELI 2  FAIR      83  66  56 E5        30.03S
FLORALA APT    MOSUNNY   83  67  58 E3        30.05S
ANDALUSIA      MOSUNNY   91  63  39 CALM      30.03S HX  92
TROY           MOSUNNY   84  66  54 CALM      30.05S
EUFALA         FAIR      87  64  46 CALM      30.04S
MOBILE         MOSUNNY   83  75  77 N7        30.03R HX  90
$$

!GAZ120>161-281600
...Southwest and South Central Georgia...

CITY           SKY/WX    TMP DP  RH WIND       PRES   REMARKS
THOMASVILLE    FAIR      86  68  54 NW5       30.05S
BAINBRIDGE     SUNNY     90  68  48 CALM      30.04S HX  93
MOODY AFB      SUNNY     84  67  55 VRB2      30.05S
VALDOSTA       SUNNY     83  67  58 VRB3      30.05S
MOULTRIE       SUNNY     82  66  57 CALM      30.05S
BLAKELY        SUNNY     88  63  42 CALM        N/A
ALBANY         SUNNY     84  63  49 CALM      30.06S
TIFTON         FAIR      83  62  49 CALM      30.05S
FITZGERALD     FAIR      86  63  44 W3        30.08R
CORDELE        FAIR      87  62  42 CALM      30.06S
AMERICUS       FAIR      84  59  42 E3        30.07S
$$

!GMZ750-755-770-775-281600
...Coastal and Buoy Obs...

STATION/POSITION TIME  TEMP    WIND        PRES    VSBY  WAVE
                       AIR SEA DIR/SP/G                  HT/PER
                 (UTC) (F)     (DEG/KT/KT) (MB)    (MI)  (FT/S)
KEATON BEACH     1500   83     200/  6/  6 1017.1R
CEDAR KEY        1500   80     110/  4/  5 1017.2R
C TOWER          1500   84     110/  9/ 11 1016.2R
APALACHICOLA BUO 1500   84 86  110/ 16/ 17 1015.5R         3/ 5
PANAMA CITY BUOY 1426   83 86   60/ 12/ 16 1015.3R         2/ 4
MOBILE BUOY      1439   85 86   60/ 12/ 14 1015.9R
ORANGE BCH AL BU 1500   82 85   40/ 10/ 10 1016.3R         2/ 6
$$



USA.gov is the U.S. government's official web portal to all federal, state and local government web resources and services.